Terminal Aerodrome Forecast
Issued by NWS Chicago, IL

Home | Current Version | Previous Version | Graphics & Text | Print | Product List | Glossary On
Versions: 1 2 3 4 5 6 7 8 9 10 11 12 13 14 15 16 17 18 19 20 21 22 23 24 25 26 27 28 29 30 31 32 33 34 35 36 37
000
FTUS43 KLOT 300000 AAA
TAFRFD
TAF AMD
KRFD 300023Z 3000/3024 17010KT P6SM FEW030 SCT080
      TEMPO 3001/3002 5SM -TSRA OVC030CB
     FM300400 20009KT P6SM VCSH FEW035 BKN060
      TEMPO 3004/3006 5SM -SHRA OVC040
     FM301500 23011KT P6SM SCT040=

USA.gov is the U.S. government's official web portal to all federal, state and local government web resources and services.